Time,TemperatureF,DewpointF,PressureIn,WindDirection,WindDirectionDegrees,WindSpeedMPH,WindSpeedGustMPH,Humidity,HourlyPrecipIn,Conditions,Clouds,dailyrainin,SoftwareType,DateUTC
2013-01-22 12:51:00,2.0,-12.1,30.30,North,0,0.0,0.0,51,0.00,,,0.00,WUHU216HW,2013-01-22 18:51:00,
2013-01-22 12:56:00,3.1,-10.7,30.30,North,0,0.0,0.0,52,0.00,,,0.00,WUHU216HW,2013-01-22 18:56:00,
2013-01-22 13:02:00,3.2,-11.0,30.30,North,0,0.0,0.0,51,0.00,,,0.00,WUHU216HW,2013-01-22 19:02:00,
2013-01-22 13:07:00,3.2,-11.0,30.30,North,0,0.0,0.0,51,0.00,,,0.00,WUHU216HW,2013-01-22 19:07:00,
2013-01-22 13:12:00,1.8,-11.5,30.29,North,0,0.0,0.0,53,0.00,,,0.00,WUHU216HW,2013-01-22 19:12:00,
2013-01-22 13:17:00,1.8,-10.8,30.29,North,0,0.0,0.0,55,0.00,,,0.00,WUHU216HW,2013-01-22 19:17:00,
2013-01-22 13:22:00,2.7,-10.3,30.29,North,0,0.0,0.0,54,0.00,,,0.00,WUHU216HW,2013-01-22 19:22:00,
2013-01-22 13:27:00,1.4,-11.9,30.28,North,0,0.0,0.0,53,0.00,,,0.00,WUHU216HW,2013-01-22 19:27:00,
2013-01-22 13:32:00,1.1,-10.8,30.29,North,0,0.0,0.0,57,0.00,,,0.00,WUHU216HW,2013-01-22 19:32:00,
2013-01-22 13:37:00,1.3,-11.0,30.29,North,0,0.0,0.0,56,0.00,,,0.00,WUHU216HW,2013-01-22 19:37:00,
2013-01-22 13:42:00,1.1,-10.8,30.29,North,0,0.0,0.0,57,0.00,,,0.00,WUHU216HW,2013-01-22 19:42:00,
2013-01-22 13:47:00,1.8,-10.1,30.29,North,0,0.0,0.0,57,0.00,,,0.00,WUHU216HW,2013-01-22 19:47:00,
2013-01-22 13:52:00,2.2,-10.4,30.28,North,0,0.0,0.0,55,0.00,,,0.00,WUHU216HW,2013-01-22 19:52:00,
2013-01-22 13:57:00,1.6,-10.6,30.28,North,0,0.0,0.0,56,0.00,,,0.00,WUHU216HW,2013-01-22 19:57:00,
2013-01-22 14:02:00,1.6,-10.2,30.28,North,0,0.0,0.0,57,0.00,,,0.00,WUHU216HW,2013-01-22 20:02:00,
2013-01-22 14:07:00,1.8,-10.1,30.28,North,0,0.0,0.0,57,0.00,,,0.00,WUHU216HW,2013-01-22 20:07:00,
2013-01-22 14:12:00,2.0,-10.6,30.29,North,0,0.0,0.0,55,0.00,,,0.00,WUHU216HW,2013-01-22 20:12:00,
2013-01-22 14:17:00,1.8,-10.1,30.29,North,0,0.0,0.0,57,0.00,,,0.00,WUHU216HW,2013-01-22 20:17:00,
2013-01-22 14:22:00,1.8,-10.1,30.29,North,0,0.0,0.0,57,0.00,,,0.00,WUHU216HW,2013-01-22 20:22:00,
2013-01-22 14:27:00,1.3,-10.6,30.29,North,0,0.0,0.0,57,0.00,,,0.00,WUHU216HW,2013-01-22 20:27:00,
2013-01-22 14:32:00,1.1,-10.8,30.28,North,0,0.0,0.0,57,0.00,,,0.00,WUHU216HW,2013-01-22 20:32:00,
2013-01-22 14:37:00,1.8,-10.1,30.28,North,0,0.0,0.0,57,0.00,,,0.00,WUHU216HW,2013-01-22 20:37:00,
2013-01-22 14:42:00,1.3,-10.6,30.28,North,0,0.0,0.0,57,0.00,,,0.00,WUHU216HW,2013-01-22 20:42:00,
2013-01-22 14:47:00,2.0,-9.9,30.28,North,0,0.0,0.0,57,0.00,,,0.00,WUHU216HW,2013-01-22 20:47:00,
2013-01-22 14:52:00,1.8,-10.1,30.28,North,0,0.0,0.0,57,0.00,,,0.00,WUHU216HW,2013-01-22 20:52:00,
2013-01-22 14:57:00,1.8,-10.1,30.28,North,0,0.0,0.0,57,0.00,,,0.00,WUHU216HW,2013-01-22 20:57:00,
2013-01-22 15:02:00,1.8,-9.7,30.28,North,0,0.0,0.0,58,0.00,,,0.00,WUHU216HW,2013-01-22 21:02:00,
2013-01-22 15:07:00,2.0,-9.9,30.28,North,0,0.0,0.0,57,0.00,,,0.00,WUHU216HW,2013-01-22 21:07:00,
2013-01-22 15:12:00,2.3,-9.5,30.27,North,0,0.0,0.0,57,0.00,,,0.00,WUHU216HW,2013-01-22 21:12:00,
2013-01-22 15:17:00,2.9,-9.0,30.27,North,0,0.0,0.0,57,0.00,,,0.00,WUHU216HW,2013-01-22 21:17:00,
2013-01-22 15:22:00,2.0,-9.9,30.27,North,0,0.0,0.0,57,0.00,,,0.00,WUHU216HW,2013-01-22 21:22:00,
2013-01-22 15:27:00,3.2,-8.3,30.28,North,0,0.0,0.0,58,0.00,,,0.00,WUHU216HW,2013-01-22 21:27:00,
2013-01-22 15:31:00,3.6,-8.7,30.28,North,0,0.0,0.0,56,0.00,,,0.00,WUHU216HW,2013-01-22 21:31:00,
2013-01-22 15:36:00,2.7,-9.2,30.27,North,0,0.0,0.0,57,0.00,,,0.00,WUHU216HW,2013-01-22 21:36:00,
2013-01-22 15:41:00,2.7,-8.8,30.28,North,0,0.0,0.0,58,0.00,,,0.00,WUHU216HW,2013-01-22 21:41:00,
2013-01-22 15:46:00,2.5,-9.0,30.27,North,0,0.0,0.0,58,0.00,,,0.00,WUHU216HW,2013-01-22 21:46:00,
2013-01-22 15:51:00,2.5,-9.0,30.27,North,0,0.0,0.0,58,0.00,,,0.00,WUHU216HW,2013-01-22 21:51:00,
2013-01-22 15:56:00,2.3,-8.8,30.27,North,0,0.0,0.0,59,0.00,,,0.00,WUHU216HW,2013-01-22 21:56:00,
2013-01-22 16:01:00,2.2,-8.6,30.26,North,0,0.0,0.0,60,0.00,,,0.00,WUHU216HW,2013-01-22 22:01:00,
2013-01-22 16:06:00,1.8,-9.0,30.26,North,0,0.0,0.0,60,0.00,,,0.00,WUHU216HW,2013-01-22 22:06:00,
2013-01-22 16:11:00,1.8,-9.0,30.26,North,0,0.0,0.0,60,0.00,,,0.00,WUHU216HW,2013-01-22 22:11:00,
2013-01-22 16:17:00,1.8,-8.6,30.26,North,0,0.0,0.0,61,0.00,,,0.00,WUHU216HW,2013-01-22 22:17:00,
2013-01-22 16:22:00,2.0,-8.8,30.26,North,0,0.0,0.0,60,0.00,,,0.00,WUHU216HW,2013-01-22 22:22:00,
2013-01-22 16:27:00,1.8,-8.6,30.26,North,0,0.0,0.0,61,0.00,,,0.00,WUHU216HW,2013-01-22 22:27:00,
2013-01-22 16:32:00,1.6,-8.8,30.26,North,0,0.0,0.0,61,0.00,,,0.00,WUHU216HW,2013-01-22 22:32:00,
2013-01-22 16:37:00,1.4,-8.7,30.26,North,0,0.0,0.0,62,0.00,,,0.00,WUHU216HW,2013-01-22 22:37:00,
2013-01-22 16:41:00,1.4,-8.4,30.26,North,0,0.0,0.0,63,0.00,,,0.00,WUHU216HW,2013-01-22 22:41:00,
2013-01-22 16:46:00,1.4,-8.4,30.26,North,0,0.0,0.0,63,0.00,,,0.00,WUHU216HW,2013-01-22 22:46:00,
2013-01-22 16:52:00,1.6,-8.5,30.26,North,0,0.0,0.0,62,0.00,,,0.00,WUHU216HW,2013-01-22 22:52:00,
2013-01-22 16:57:00,1.8,-8.0,30.26,North,0,0.0,0.0,63,0.00,,,0.00,WUHU216HW,2013-01-22 22:57:00,
2013-01-22 17:02:00,2.3,-7.8,30.26,North,0,0.0,0.0,62,0.00,,,0.00,WUHU216HW,2013-01-22 23:02:00,
2013-01-22 17:07:00,2.2,-8.0,30.26,North,0,0.0,0.0,62,0.00,,,0.00,WUHU216HW,2013-01-22 23:07:00,
2013-01-22 17:12:00,2.0,-8.4,30.26,North,0,0.0,0.0,61,0.00,,,0.00,WUHU216HW,2013-01-22 23:12:00,
2013-01-22 17:17:00,1.8,-8.4,30.26,North,0,0.0,0.0,62,0.00,,,0.00,WUHU216HW,2013-01-22 23:17:00,
2013-01-22 17:22:00,1.8,-8.4,30.26,North,0,0.0,0.0,62,0.00,,,0.00,WUHU216HW,2013-01-22 23:22:00,
2013-01-22 17:27:00,1.8,-8.0,30.26,North,0,0.0,0.0,63,0.00,,,0.00,WUHU216HW,2013-01-22 23:27:00,
2013-01-22 17:32:00,1.8,-8.0,30.26,North,0,0.0,0.0,63,0.00,,,0.00,WUHU216HW,2013-01-22 23:32:00,
2013-01-22 17:37:00,1.8,-8.0,30.26,North,0,0.0,0.0,63,0.00,,,0.00,WUHU216HW,2013-01-22 23:37:00,
2013-01-22 17:42:00,1.6,-8.2,30.26,North,0,0.0,0.0,63,0.00,,,0.00,WUHU216HW,2013-01-22 23:42:00,
2013-01-22 17:47:00,1.6,-8.2,30.26,North,0,0.0,0.0,63,0.00,,,0.00,WUHU216HW,2013-01-22 23:47:00,
2013-01-22 17:52:00,1.6,-8.2,30.26,North,0,0.0,0.0,63,0.00,,,0.00,WUHU216HW,2013-01-22 23:52:00,
2013-01-22 17:57:00,1.4,-8.1,30.25,North,0,0.0,0.0,64,0.00,,,0.00,WUHU216HW,2013-01-22 23:57:00,
2013-01-22 18:02:00,1.6,-8.2,30.25,North,0,0.0,0.0,63,0.00,,,0.00,WUHU216HW,2013-01-23 00:02:00,
2013-01-22 18:07:00,1.6,-8.2,30.25,North,0,0.0,0.0,63,0.00,,,0.00,WUHU216HW,2013-01-23 00:07:00,
2013-01-22 18:12:00,1.8,-7.7,30.25,North,0,0.0,0.0,64,0.00,,,0.00,WUHU216HW,2013-01-23 00:12:00,
2013-01-22 18:17:00,1.8,-8.0,30.25,North,0,0.0,0.0,63,0.00,,,0.00,WUHU216HW,2013-01-23 00:17:00,
2013-01-22 18:22:00,1.8,-8.0,30.24,North,0,0.0,0.0,63,0.00,,,0.00,WUHU216HW,2013-01-23 00:22:00,
2013-01-22 18:27:00,1.8,-8.0,30.24,North,0,0.0,0.0,63,0.00,,,0.00,WUHU216HW,2013-01-23 00:27:00,
2013-01-22 18:32:00,1.8,-7.7,30.24,North,0,0.0,0.0,64,0.00,,,0.00,WUHU216HW,2013-01-23 00:32:00,
2013-01-22 18:37:00,1.8,-7.7,30.24,North,0,0.0,0.0,64,0.00,,,0.00,WUHU216HW,2013-01-23 00:37:00,
2013-01-22 18:42:00,1.8,-7.4,30.24,North,0,0.0,0.0,65,0.00,,,0.00,WUHU216HW,2013-01-23 00:42:00,
2013-01-22 18:47:00,1.6,-7.6,30.24,North,0,0.0,0.0,65,0.00,,,0.00,WUHU216HW,2013-01-23 00:47:00,
2013-01-22 18:52:00,1.8,-7.0,30.24,North,0,0.0,0.0,66,0.00,,,0.00,WUHU216HW,2013-01-23 00:52:00,
2013-01-22 18:57:00,1.8,-7.4,30.23,North,0,0.0,0.0,65,0.00,,,0.00,WUHU216HW,2013-01-23 00:57:00,
2013-01-22 19:02:00,1.8,-7.0,30.23,North,0,0.0,0.0,66,0.00,,,0.00,WUHU216HW,2013-01-23 01:02:00,
2013-01-22 19:07:00,1.8,-7.0,30.24,North,0,0.0,0.0,66,0.00,,,0.00,WUHU216HW,2013-01-23 01:07:00,
2013-01-22 19:12:00,1.8,-6.7,30.23,North,0,0.0,0.0,67,0.00,,,0.00,WUHU216HW,2013-01-23 01:12:00,
2013-01-22 19:17:00,2.0,-6.6,30.23,North,0,0.0,0.0,67,0.00,,,0.00,WUHU216HW,2013-01-23 01:17:00,
2013-01-22 19:22:00,1.8,-6.7,30.23,North,0,0.0,0.0,67,0.00,,,0.00,WUHU216HW,2013-01-23 01:22:00,
2013-01-22 19:27:00,2.0,-6.6,30.23,North,0,0.0,0.0,67,0.00,,,0.00,WUHU216HW,2013-01-23 01:27:00,
2013-01-22 19:32:00,2.3,-6.5,30.23,North,0,0.0,0.0,66,0.00,,,0.00,WUHU216HW,2013-01-23 01:32:00,
2013-01-22 19:37:00,2.3,-6.2,30.23,North,0,0.0,0.0,67,0.00,,,0.00,WUHU216HW,2013-01-23 01:37:00,
2013-01-22 19:42:00,2.3,-6.2,30.23,North,0,0.0,0.0,67,0.00,,,0.00,WUHU216HW,2013-01-23 01:42:00,
2013-01-22 19:47:00,2.3,-6.2,30.23,North,0,0.0,0.0,67,0.00,,,0.00,WUHU216HW,2013-01-23 01:47:00,
2013-01-22 19:52:00,2.3,-6.2,30.23,North,0,0.0,0.0,67,0.00,,,0.00,WUHU216HW,2013-01-23 01:52:00,
2013-01-22 19:57:00,2.2,-6.4,30.23,North,0,0.0,0.0,67,0.00,,,0.00,WUHU216HW,2013-01-23 01:57:00,
2013-01-22 20:02:00,2.2,-6.4,30.23,North,0,0.0,0.0,67,0.00,,,0.00,WUHU216HW,2013-01-23 02:02:00,
2013-01-22 20:07:00,2.3,-5.8,30.22,North,0,0.0,0.0,68,0.00,,,0.00,WUHU216HW,2013-01-23 02:07:00,
2013-01-22 20:12:00,2.3,-5.8,30.22,North,0,0.0,0.0,68,0.00,,,0.00,WUHU216HW,2013-01-23 02:12:00,
2013-01-22 20:17:00,2.3,-5.8,30.22,North,0,0.0,0.0,68,0.00,,,0.00,WUHU216HW,2013-01-23 02:17:00,
2013-01-22 20:22:00,2.3,-5.6,30.22,North,0,0.0,0.0,69,0.00,,,0.00,WUHU216HW,2013-01-23 02:22:00,
2013-01-22 20:27:00,2.5,-5.4,30.22,North,0,0.0,0.0,69,0.00,,,0.00,WUHU216HW,2013-01-23 02:27:00,
2013-01-22 20:32:00,2.5,-5.0,30.22,North,0,0.0,0.0,70,0.00,,,0.00,WUHU216HW,2013-01-23 02:32:00,
2013-01-22 20:37:00,2.5,-5.4,30.22,North,0,0.0,0.0,69,0.00,,,0.00,WUHU216HW,2013-01-23 02:37:00,
2013-01-22 20:42:00,2.9,-5.0,30.21,North,0,0.0,0.0,69,0.00,,,0.00,WUHU216HW,2013-01-23 02:42:00,
2013-01-22 20:47:00,3.1,-5.1,30.21,North,0,0.0,0.0,68,0.00,,,0.00,WUHU216HW,2013-01-23 02:47:00,
2013-01-22 20:52:00,3.2,-4.7,30.21,North,0,0.0,0.0,69,0.00,,,0.00,WUHU216HW,2013-01-23 02:52:00,
2013-01-22 20:57:00,3.2,-4.7,30.21,North,0,0.0,0.0,69,0.00,,,0.00,WUHU216HW,2013-01-23 02:57:00,
2013-01-22 21:02:00,3.1,-4.9,30.21,North,0,0.0,0.0,69,0.00,,,0.00,WUHU216HW,2013-01-23 03:02:00,
2013-01-22 21:07:00,3.1,-4.9,30.21,North,0,0.0,0.0,69,0.00,,,0.00,WUHU216HW,2013-01-23 03:07:00,
2013-01-22 21:12:00,3.1,-4.5,30.21,North,0,0.0,0.0,70,0.00,,,0.00,WUHU216HW,2013-01-23 03:12:00,
2013-01-22 21:17:00,3.1,-4.9,30.21,North,0,0.0,0.0,69,0.00,,,0.00,WUHU216HW,2013-01-23 03:17:00,
2013-01-22 21:22:00,3.2,-4.7,30.21,North,0,0.0,0.0,69,0.00,,,0.00,WUHU216HW,2013-01-23 03:22:00,
2013-01-22 21:27:00,3.2,-4.3,30.21,North,0,0.0,0.0,70,0.00,,,0.00,WUHU216HW,2013-01-23 03:27:00,
2013-01-22 21:32:00,3.2,-4.3,30.21,North,0,0.0,0.0,70,0.00,,,0.00,WUHU216HW,2013-01-23 03:32:00,
2013-01-22 21:37:00,3.4,-4.1,30.21,North,0,0.0,0.0,70,0.00,,,0.00,WUHU216HW,2013-01-23 03:37:00,
2013-01-22 21:42:00,3.4,-4.1,30.21,North,0,0.0,0.0,70,0.00,,,0.00,WUHU216HW,2013-01-23 03:42:00,
2013-01-22 21:47:00,3.4,-4.1,30.21,North,0,0.0,0.0,70,0.00,,,0.00,WUHU216HW,2013-01-23 03:47:00,
2013-01-22 21:52:00,3.4,-4.1,30.20,North,0,0.0,0.0,70,0.00,,,0.00,WUHU216HW,2013-01-23 03:52:00,
2013-01-22 21:57:00,3.6,-3.9,30.21,North,0,0.0,0.0,70,0.00,,,0.00,WUHU216HW,2013-01-23 03:57:00,
2013-01-22 22:02:00,3.8,-3.9,30.20,North,0,0.0,0.0,70,0.00,,,0.00,WUHU216HW,2013-01-23 04:02:00,
2013-01-22 22:07:00,4.0,-3.9,30.20,North,0,0.0,0.0,69,0.00,,,0.00,WUHU216HW,2013-01-23 04:07:00,
2013-01-22 22:12:00,4.0,-3.9,30.20,North,0,0.0,0.0,69,0.00,,,0.00,WUHU216HW,2013-01-23 04:12:00,
2013-01-22 22:17:00,4.0,-3.9,30.20,North,0,0.0,0.0,69,0.00,,,0.00,WUHU216HW,2013-01-23 04:17:00,
2013-01-22 22:22:00,4.0,-3.9,30.20,North,0,0.0,0.0,69,0.00,,,0.00,WUHU216HW,2013-01-23 04:22:00,
2013-01-22 22:27:00,3.8,-3.9,30.19,North,0,0.0,0.0,70,0.00,,,0.00,WUHU216HW,2013-01-23 04:27:00,
2013-01-22 22:32:00,4.0,-3.7,30.19,North,0,0.0,0.0,70,0.00,,,0.00,WUHU216HW,2013-01-23 04:32:00,
2013-01-22 22:37:00,4.0,-3.7,30.19,North,0,0.0,0.0,70,0.00,,,0.00,WUHU216HW,2013-01-23 04:37:00,
2013-01-22 22:42:00,4.0,-3.7,30.19,North,0,0.0,0.0,70,0.00,,,0.00,WUHU216HW,2013-01-23 04:42:00,
2013-01-22 22:47:00,4.0,-3.7,30.19,North,0,0.0,0.0,70,0.00,,,0.00,WUHU216HW,2013-01-23 04:47:00,
2013-01-22 22:52:00,4.1,-3.5,30.19,North,0,0.0,0.0,70,0.00,,,0.00,WUHU216HW,2013-01-23 04:52:00,
2013-01-22 22:57:00,4.1,-3.9,30.19,North,0,0.0,0.0,69,0.00,,,0.00,WUHU216HW,2013-01-23 04:57:00,
2013-01-22 23:01:00,4.1,-3.9,30.19,North,0,0.0,0.0,69,0.00,,,0.00,WUHU216HW,2013-01-23 05:01:00,
2013-01-22 23:02:00,4.1,-3.9,30.19,North,0,0.0,0.0,69,0.00,,,0.00,WUHU216HW,2013-01-23 05:02:00,
2013-01-22 23:03:00,4.3,-3.3,30.19,North,0,0.0,0.0,70,0.00,,,0.00,WUHU216HW,2013-01-23 05:03:00,
2013-01-22 23:08:00,4.3,-3.7,30.19,North,0,0.0,0.0,69,0.00,,,0.00,WUHU216HW,2013-01-23 05:08:00,
2013-01-22 23:13:00,4.5,-3.1,30.19,North,0,0.0,0.0,70,0.00,,,0.00,WUHU216HW,2013-01-23 05:13:00,
2013-01-22 23:18:00,4.7,-3.3,30.19,North,0,0.0,0.0,69,0.00,,,0.00,WUHU216HW,2013-01-23 05:18:00,
2013-01-22 23:23:00,4.9,-3.1,30.19,North,0,0.0,0.0,69,0.00,,,0.00,WUHU216HW,2013-01-23 05:23:00,
2013-01-22 23:28:00,4.9,-3.1,30.19,North,0,0.0,0.0,69,0.00,,,0.00,WUHU216HW,2013-01-23 05:28:00,
2013-01-22 23:33:00,4.7,-3.3,30.19,North,0,0.0,0.0,69,0.00,,,0.00,WUHU216HW,2013-01-23 05:33:00,
2013-01-22 23:38:00,4.7,-3.3,30.19,North,0,0.0,0.0,69,0.00,,,0.00,WUHU216HW,2013-01-23 05:38:00,
2013-01-22 23:43:00,4.7,-3.1,30.18,North,0,0.0,0.0,70,0.00,,,0.00,WUHU216HW,2013-01-23 05:43:00,
2013-01-22 23:48:00,4.9,-2.9,30.18,North,0,0.0,0.0,70,0.00,,,0.00,WUHU216HW,2013-01-23 05:48:00,
2013-01-22 23:53:00,4.9,-2.9,30.18,North,0,0.0,0.0,70,0.00,,,0.00,WUHU216HW,2013-01-23 05:53:00,
2013-01-22 23:58:00,5.0,-2.7,30.18,North,0,0.0,0.0,70,0.00,,,0.00,WUHU216HW,2013-01-23 05:58:00,